Time,TemperatureF,DewpointF,PressureIn,WindDirection,WindDirectionDegrees,WindSpeedMPH,WindSpeedGustMPH,Humidity,HourlyPrecipIn,Conditions,Clouds,dailyrainin,SoftwareType,DateUTC
2013-01-10 07:57:00,35.8,25.2,30.42,NW,310,0.0,0.0,65,0.00,,,0.00,meteohub,2013-01-10 12:57:00,
2013-01-10 08:02:00,35.8,25.5,30.43,NW,310,0.0,0.0,66,0.00,,,0.00,meteohub,2013-01-10 13:02:00,
2013-01-10 08:07:00,35.4,25.5,30.43,NW,310,0.0,0.0,67,0.00,,,0.00,meteohub,2013-01-10 13:07:00,
2013-01-10 08:12:00,35.4,25.5,30.44,NW,310,0.0,0.0,67,0.00,,,0.00,meteohub,2013-01-10 13:12:00,
2013-01-10 08:17:00,35.4,25.2,30.45,NW,310,0.0,0.0,66,0.00,,,0.00,meteohub,2013-01-10 13:17:00,
2013-01-10 08:22:00,35.8,25.2,30.45,NW,310,0.0,0.0,65,0.00,,,0.00,meteohub,2013-01-10 13:22:00,
2013-01-10 08:27:00,36.5,25.5,30.44,NW,310,0.0,0.0,64,0.00,,,0.00,meteohub,2013-01-10 13:27:00,
2013-01-10 08:32:00,37.0,26.1,30.44,NW,310,0.0,0.0,64,0.00,,,0.00,meteohub,2013-01-10 13:32:00,
2013-01-10 08:37:00,37.8,26.2,30.44,NW,310,0.0,0.0,63,0.00,,,0.00,meteohub,2013-01-10 13:37:00,
2013-01-10 08:42:00,38.3,26.4,30.44,NW,310,0.0,0.0,62,0.00,,,0.00,meteohub,2013-01-10 13:42:00,
2013-01-10 08:47:00,38.8,26.6,30.44,NW,310,0.0,0.0,61,0.00,,,0.00,meteohub,2013-01-10 13:47:00,
2013-01-10 08:52:00,39.4,26.6,30.44,NW,310,0.0,0.0,60,0.00,,,0.00,meteohub,2013-01-10 13:52:00,
2013-01-10 08:57:00,39.6,27.7,30.44,NW,310,0.0,0.0,62,0.00,,,0.00,meteohub,2013-01-10 13:57:00,
2013-01-10 09:02:00,39.9,26.4,30.45,NW,310,0.0,0.0,58,0.00,,,0.00,meteohub,2013-01-10 14:02:00,
2013-01-10 09:07:00,40.3,27.1,30.45,NW,310,0.0,0.0,59,0.00,,,0.00,meteohub,2013-01-10 14:07:00,
2013-01-10 09:12:00,40.6,27.9,30.45,NW,310,0.0,0.0,60,0.00,,,0.00,meteohub,2013-01-10 14:12:00,
2013-01-10 09:17:00,40.8,27.7,30.45,NW,310,0.0,0.0,59,0.00,,,0.00,meteohub,2013-01-10 14:17:00,
2013-01-10 09:22:00,41.0,28.2,30.45,NW,310,0.0,0.0,60,0.00,,,0.00,meteohub,2013-01-10 14:22:00,
2013-01-10 09:27:00,41.2,27.5,30.46,NW,310,0.0,0.0,58,0.00,,,0.00,meteohub,2013-01-10 14:27:00,
2013-01-10 09:32:00,41.4,27.3,30.46,NW,310,0.0,0.0,57,0.00,,,0.00,meteohub,2013-01-10 14:32:00,
2013-01-10 09:37:00,41.4,27.7,30.46,NW,310,0.0,0.0,58,0.00,,,0.00,meteohub,2013-01-10 14:37:00,
2013-01-10 09:42:00,41.4,27.3,30.46,NW,310,0.0,0.0,57,0.00,,,0.00,meteohub,2013-01-10 14:42:00,
2013-01-10 09:47:00,41.5,27.0,30.46,NW,310,0.0,0.0,56,0.00,,,0.00,meteohub,2013-01-10 14:47:00,
2013-01-10 09:52:00,41.7,27.1,30.46,NW,310,0.0,0.0,56,0.00,,,0.00,meteohub,2013-01-10 14:52:00,
2013-01-10 09:57:00,41.7,27.1,30.46,NW,310,0.0,0.0,56,0.00,,,0.00,meteohub,2013-01-10 14:57:00,
2013-01-10 10:02:00,42.1,27.9,30.46,NW,310,0.0,0.0,57,0.00,,,0.00,meteohub,2013-01-10 15:02:00,
2013-01-10 10:07:00,42.3,27.3,30.47,NW,310,0.0,0.0,55,0.00,,,0.00,meteohub,2013-01-10 15:07:00,
2013-01-10 10:12:00,42.4,27.0,30.46,NW,310,0.0,0.0,54,0.00,,,0.00,meteohub,2013-01-10 15:12:00,
2013-01-10 10:17:00,42.4,27.5,30.47,NW,310,0.0,0.0,55,0.00,,,0.00,meteohub,2013-01-10 15:17:00,
2013-01-10 10:22:00,42.4,26.6,30.47,NW,310,0.0,0.0,53,0.00,,,0.00,meteohub,2013-01-10 15:22:00,
2013-01-10 10:27:00,42.6,28.4,30.46,NW,310,0.0,0.0,57,0.00,,,0.00,meteohub,2013-01-10 15:27:00,
2013-01-10 10:32:00,43.0,28.8,30.46,NW,310,0.0,0.0,57,0.00,,,0.00,meteohub,2013-01-10 15:32:00,
2013-01-10 10:37:00,43.2,27.7,30.46,NW,310,0.0,0.0,54,0.00,,,0.00,meteohub,2013-01-10 15:37:00,
2013-01-10 10:42:00,43.2,27.1,30.46,NW,310,0.0,0.0,53,0.00,,,0.00,meteohub,2013-01-10 15:42:00,
2013-01-10 10:47:00,43.2,28.0,30.45,NW,310,0.0,0.0,55,0.00,,,0.00,meteohub,2013-01-10 15:47:00,
2013-01-10 10:52:00,43.3,28.2,30.45,NW,310,0.0,0.0,55,0.00,,,0.00,meteohub,2013-01-10 15:52:00,
2013-01-10 10:57:00,43.3,27.9,30.44,NW,310,0.0,0.0,54,0.00,,,0.00,meteohub,2013-01-10 15:57:00,
2013-01-10 11:02:00,43.5,28.0,30.44,NW,310,0.0,0.0,54,0.00,,,0.00,meteohub,2013-01-10 16:02:00,
2013-01-10 11:07:00,43.9,27.9,30.44,NW,310,0.0,0.0,53,0.00,,,0.00,meteohub,2013-01-10 16:07:00,
2013-01-10 11:12:00,43.9,27.3,30.44,NW,310,0.0,0.0,52,0.00,,,0.00,meteohub,2013-01-10 16:12:00,
2013-01-10 11:17:00,44.1,27.1,30.44,NW,310,0.0,0.0,51,0.00,,,0.00,meteohub,2013-01-10 16:17:00,
2013-01-10 11:22:00,44.1,27.1,30.44,NW,310,0.0,0.0,51,0.00,,,0.00,meteohub,2013-01-10 16:22:00,
2013-01-10 11:32:00,44.1,27.5,30.44,NW,310,0.0,0.0,52,0.00,,,0.00,meteohub,2013-01-10 16:32:00,
2013-01-10 11:37:00,44.1,27.5,30.44,NW,310,0.0,0.0,52,0.00,,,0.00,meteohub,2013-01-10 16:37:00,
2013-01-10 11:42:00,44.1,27.5,30.43,NW,310,0.0,0.0,52,0.00,,,0.00,meteohub,2013-01-10 16:42:00,
2013-01-10 11:47:00,44.1,26.6,30.43,NW,310,0.0,0.0,50,0.00,,,0.00,meteohub,2013-01-10 16:47:00,
2013-01-10 11:57:00,43.9,27.3,30.42,NW,310,0.0,0.0,52,0.00,,,0.00,meteohub,2013-01-10 16:57:00,
2013-01-10 12:02:00,43.9,26.4,30.41,NW,310,0.0,0.0,50,0.00,,,0.00,meteohub,2013-01-10 17:02:00,
2013-01-10 12:07:00,44.1,27.5,30.41,NW,310,0.0,0.0,52,0.00,,,0.00,meteohub,2013-01-10 17:07:00,
2013-01-10 12:12:00,44.1,26.1,30.41,NW,310,0.0,0.0,49,0.00,,,0.00,meteohub,2013-01-10 17:12:00,
2013-01-10 12:17:00,44.2,26.8,30.41,NW,310,0.0,0.0,50,0.00,,,0.00,meteohub,2013-01-10 17:17:00,
2013-01-10 12:22:00,44.2,26.8,30.41,NW,310,0.0,0.0,50,0.00,,,0.00,meteohub,2013-01-10 17:22:00,
2013-01-10 12:27:00,44.4,27.5,30.41,NW,310,0.0,0.0,51,0.00,,,0.00,meteohub,2013-01-10 17:27:00,
2013-01-10 12:32:00,44.8,27.7,30.40,NW,310,0.0,0.0,51,0.00,,,0.00,meteohub,2013-01-10 17:32:00,
2013-01-10 12:37:00,44.8,26.8,30.40,NW,310,0.0,0.0,49,0.00,,,0.00,meteohub,2013-01-10 17:37:00,
2013-01-10 12:42:00,45.0,27.9,30.40,NW,310,0.0,0.0,51,0.00,,,0.00,meteohub,2013-01-10 17:42:00,
2013-01-10 12:47:00,45.1,27.7,30.40,NW,310,0.0,0.0,50,0.00,,,0.00,meteohub,2013-01-10 17:47:00,
2013-01-10 12:52:00,45.3,28.2,30.39,NW,310,0.0,0.0,51,0.00,,,0.00,meteohub,2013-01-10 17:52:00,
2013-01-10 12:57:00,45.1,28.6,30.39,NW,310,0.0,0.0,52,0.00,,,0.00,meteohub,2013-01-10 17:57:00,
2013-01-10 13:02:00,45.1,28.0,30.40,NW,310,0.0,0.0,51,0.00,,,0.00,meteohub,2013-01-10 18:02:00,
2013-01-10 13:07:00,45.1,27.7,30.40,NW,310,0.0,0.0,50,0.00,,,0.00,meteohub,2013-01-10 18:07:00,
2013-01-10 13:12:00,45.3,26.8,30.40,NW,310,0.0,0.0,48,0.00,,,0.00,meteohub,2013-01-10 18:12:00,
2013-01-10 13:17:00,45.3,27.3,30.40,NW,310,0.0,0.0,49,0.00,,,0.00,meteohub,2013-01-10 18:17:00,
2013-01-10 13:22:00,45.5,27.9,30.40,NW,310,0.0,0.0,50,0.00,,,0.00,meteohub,2013-01-10 18:22:00,
2013-01-10 13:27:00,45.7,28.0,30.41,NW,310,0.0,0.0,50,0.00,,,0.00,meteohub,2013-01-10 18:27:00,
2013-01-10 13:32:00,45.7,28.0,30.41,NW,310,0.0,0.0,50,0.00,,,0.00,meteohub,2013-01-10 18:32:00,
2013-01-10 13:37:00,45.7,27.7,30.40,NW,310,0.0,0.0,49,0.00,,,0.00,meteohub,2013-01-10 18:37:00,
2013-01-10 13:42:00,45.7,28.0,30.41,NW,310,0.0,0.0,50,0.00,,,0.00,meteohub,2013-01-10 18:42:00,
2013-01-10 13:47:00,46.0,28.4,30.41,NW,310,0.0,0.0,50,0.00,,,0.00,meteohub,2013-01-10 18:47:00,
2013-01-10 13:52:00,46.2,27.7,30.41,NW,310,0.0,0.0,48,0.00,,,0.00,meteohub,2013-01-10 18:52:00,
2013-01-10 13:57:00,46.0,27.5,30.41,NW,310,0.0,0.0,48,0.00,,,0.00,meteohub,2013-01-10 18:57:00,
2013-01-10 14:02:00,46.0,27.0,30.42,NW,310,0.0,0.0,47,0.00,,,0.00,meteohub,2013-01-10 19:02:00,
2013-01-10 14:07:00,45.9,28.2,30.42,NW,310,0.0,0.0,50,0.00,,,0.00,meteohub,2013-01-10 19:07:00,
2013-01-10 14:12:00,45.7,27.7,30.42,NW,310,0.0,0.0,49,0.00,,,0.00,meteohub,2013-01-10 19:12:00,
2013-01-10 14:17:00,45.7,28.0,30.41,NW,310,0.0,0.0,50,0.00,,,0.00,meteohub,2013-01-10 19:17:00,
2013-01-10 14:22:00,45.7,27.7,30.42,NW,310,0.0,0.0,49,0.00,,,0.00,meteohub,2013-01-10 19:22:00,
2013-01-10 14:27:00,45.7,27.7,30.43,NW,310,0.0,0.0,49,0.00,,,0.00,meteohub,2013-01-10 19:27:00,
2013-01-10 14:32:00,45.9,28.2,30.43,NW,310,0.0,0.0,50,0.00,,,0.00,meteohub,2013-01-10 19:32:00,
2013-01-10 14:37:00,45.9,28.2,30.43,NW,310,0.0,0.0,50,0.00,,,0.00,meteohub,2013-01-10 19:37:00,
2013-01-10 14:47:00,45.3,26.8,30.42,NW,310,0.0,0.0,48,0.00,,,0.00,meteohub,2013-01-10 19:47:00,
2013-01-10 14:52:00,45.0,27.0,30.42,NW,310,0.0,0.0,49,0.00,,,0.00,meteohub,2013-01-10 19:52:00,
2013-01-10 14:57:00,45.0,27.0,30.43,NW,310,0.0,0.0,49,0.00,,,0.00,meteohub,2013-01-10 19:57:00,
2013-01-10 15:07:00,45.0,27.0,30.44,NW,310,0.0,0.0,49,0.00,,,0.00,meteohub,2013-01-10 20:07:00,
2013-01-10 15:12:00,44.8,25.7,30.45,NW,310,0.0,0.0,47,0.00,,,0.00,meteohub,2013-01-10 20:12:00,
2013-01-10 15:17:00,44.2,26.2,30.44,NW,310,0.0,0.0,49,0.00,,,0.00,meteohub,2013-01-10 20:17:00,
2013-01-10 15:22:00,44.1,26.1,30.44,NW,310,0.0,0.0,49,0.00,,,0.00,meteohub,2013-01-10 20:22:00,
2013-01-10 15:27:00,43.9,25.9,30.44,NW,310,0.0,0.0,49,0.00,,,0.00,meteohub,2013-01-10 20:27:00,
2013-01-10 15:32:00,43.5,26.1,30.45,NW,310,0.0,0.0,50,0.00,,,0.00,meteohub,2013-01-10 20:32:00,
2013-01-10 15:37:00,43.3,25.9,30.46,NW,310,0.0,0.0,50,0.00,,,0.00,meteohub,2013-01-10 20:37:00,
2013-01-10 15:42:00,43.3,26.4,30.46,NW,310,0.0,0.0,51,0.00,,,0.00,meteohub,2013-01-10 20:42:00,
2013-01-10 15:47:00,43.2,26.8,30.46,NW,310,0.0,0.0,52,0.00,,,0.00,meteohub,2013-01-10 20:47:00,
2013-01-10 15:52:00,43.0,26.1,30.45,NW,310,0.0,0.0,51,0.00,,,0.00,meteohub,2013-01-10 20:52:00,
2013-01-10 15:57:00,43.0,26.6,30.46,NW,310,0.0,0.0,52,0.00,,,0.00,meteohub,2013-01-10 20:57:00,
2013-01-10 16:02:00,43.0,25.7,30.46,NW,310,0.0,0.0,50,0.00,,,0.00,meteohub,2013-01-10 21:02:00,
2013-01-10 16:07:00,43.0,26.6,30.47,NW,310,0.0,0.0,52,0.00,,,0.00,meteohub,2013-01-10 21:07:00,
2013-01-10 16:12:00,43.0,26.1,30.46,NW,310,0.0,0.0,51,0.00,,,0.00,meteohub,2013-01-10 21:12:00,
2013-01-10 16:17:00,42.6,26.2,30.46,NW,310,0.0,0.0,52,0.00,,,0.00,meteohub,2013-01-10 21:17:00,
2013-01-10 16:22:00,42.4,25.5,30.47,NW,310,0.0,0.0,51,0.00,,,0.00,meteohub,2013-01-10 21:22:00,
2013-01-10 16:27:00,42.4,26.1,30.47,NW,310,0.0,0.0,52,0.00,,,0.00,meteohub,2013-01-10 21:27:00,
2013-01-10 16:32:00,42.3,26.4,30.47,NW,310,0.0,0.0,53,0.00,,,0.00,meteohub,2013-01-10 21:32:00,
2013-01-10 16:37:00,42.1,26.2,30.47,NW,310,0.0,0.0,53,0.00,,,0.00,meteohub,2013-01-10 21:37:00,
2013-01-10 16:42:00,41.9,27.0,30.47,NW,310,0.0,0.0,55,0.00,,,0.00,meteohub,2013-01-10 21:42:00,
2013-01-10 16:47:00,41.7,26.8,30.48,NW,310,0.0,0.0,55,0.00,,,0.00,meteohub,2013-01-10 21:47:00,
2013-01-10 16:52:00,41.5,25.7,30.48,NW,310,0.0,0.0,53,0.00,,,0.00,meteohub,2013-01-10 21:52:00,
2013-01-10 16:57:00,41.5,26.6,30.48,NW,310,0.0,0.0,55,0.00,,,0.00,meteohub,2013-01-10 21:57:00,
2013-01-10 17:02:00,41.4,26.4,30.48,NW,310,0.0,0.0,55,0.00,,,0.00,meteohub,2013-01-10 22:02:00,
2013-01-10 17:07:00,41.0,25.7,30.48,NW,310,0.0,0.0,54,0.00,,,0.00,meteohub,2013-01-10 22:07:00,
2013-01-10 17:12:00,41.2,25.3,30.48,NW,310,0.0,0.0,53,0.00,,,0.00,meteohub,2013-01-10 22:12:00,
2013-01-10 17:17:00,41.2,26.2,30.48,NW,310,0.0,0.0,55,0.00,,,0.00,meteohub,2013-01-10 22:17:00,
2013-01-10 17:22:00,41.0,26.1,30.49,NW,310,0.0,0.0,55,0.00,,,0.00,meteohub,2013-01-10 22:22:00,
2013-01-10 17:27:00,40.6,26.2,30.49,NW,310,0.0,0.0,56,0.00,,,0.00,meteohub,2013-01-10 22:27:00,
2013-01-10 17:32:00,40.5,25.5,30.49,NW,310,0.0,0.0,55,0.00,,,0.00,meteohub,2013-01-10 22:32:00,
2013-01-10 17:37:00,40.3,25.9,30.49,NW,310,0.0,0.0,56,0.00,,,0.00,meteohub,2013-01-10 22:37:00,
2013-01-10 17:42:00,40.3,26.2,30.50,NW,310,0.0,0.0,57,0.00,,,0.00,meteohub,2013-01-10 22:42:00,
2013-01-10 17:47:00,40.3,25.9,30.50,NW,310,0.0,0.0,56,0.00,,,0.00,meteohub,2013-01-10 22:47:00,
2013-01-10 17:52:00,40.3,26.2,30.50,NW,310,0.0,0.0,57,0.00,,,0.00,meteohub,2013-01-10 22:52:00,
2013-01-10 17:57:00,39.9,25.9,30.50,NW,310,0.0,0.0,57,0.00,,,0.00,meteohub,2013-01-10 22:57:00,
2013-01-10 18:02:00,39.9,26.8,30.50,NW,310,0.0,0.0,59,0.00,,,0.00,meteohub,2013-01-10 23:02:00,
2013-01-10 18:07:00,39.7,26.2,30.51,NW,310,0.0,0.0,58,0.00,,,0.00,meteohub,2013-01-10 23:07:00,
2013-01-10 18:12:00,39.6,26.8,30.51,NW,310,0.0,0.0,60,0.00,,,0.00,meteohub,2013-01-10 23:12:00,
2013-01-10 18:17:00,39.4,26.2,30.50,NW,310,0.0,0.0,59,0.00,,,0.00,meteohub,2013-01-10 23:17:00,
2013-01-10 18:22:00,39.4,26.2,30.51,NW,310,0.0,0.0,59,0.00,,,0.00,meteohub,2013-01-10 23:22:00,
2013-01-10 18:27:00,39.2,26.4,30.51,NW,310,0.0,0.0,60,0.00,,,0.00,meteohub,2013-01-10 23:27:00,
2013-01-10 18:32:00,38.8,26.6,30.51,NW,310,0.0,0.0,61,0.00,,,0.00,meteohub,2013-01-10 23:32:00,
2013-01-10 18:37:00,39.0,25.9,30.51,NW,310,0.0,0.0,59,0.00,,,0.00,meteohub,2013-01-10 23:37:00,
2013-01-10 18:42:00,38.8,26.6,30.51,NW,310,0.0,0.0,61,0.00,,,0.00,meteohub,2013-01-10 23:42:00,
2013-01-10 18:47:00,38.8,26.1,30.51,NW,310,0.0,0.0,60,0.00,,,0.00,meteohub,2013-01-10 23:47:00,
2013-01-10 18:52:00,38.7,26.1,30.51,NW,310,0.0,0.0,60,0.00,,,0.00,meteohub,2013-01-10 23:52:00,
2013-01-10 18:57:00,38.5,26.2,30.52,NW,310,0.0,0.0,61,0.00,,,0.00,meteohub,2013-01-10 23:57:00,
2013-01-10 19:02:00,38.3,25.7,30.52,NW,310,0.0,0.0,60,0.00,,,0.00,meteohub,2013-01-11 00:02:00,
2013-01-10 19:07:00,38.1,25.9,30.52,NW,310,0.0,0.0,61,0.00,,,0.00,meteohub,2013-01-11 00:07:00,
2013-01-10 19:12:00,38.3,26.1,30.53,NW,310,0.0,0.0,61,0.00,,,0.00,meteohub,2013-01-11 00:12:00,
2013-01-10 19:17:00,38.1,25.9,30.53,NW,310,0.0,0.0,61,0.00,,,0.00,meteohub,2013-01-11 00:17:00,
2013-01-10 19:22:00,37.9,25.7,30.53,NW,310,0.0,0.0,61,0.00,,,0.00,meteohub,2013-01-11 00:22:00,
2013-01-10 19:27:00,37.9,26.1,30.53,NW,310,0.0,0.0,62,0.00,,,0.00,meteohub,2013-01-11 00:27:00,
2013-01-10 19:32:00,37.9,26.1,30.53,NW,310,0.0,0.0,62,0.00,,,0.00,meteohub,2013-01-11 00:32:00,
2013-01-10 19:37:00,37.8,25.9,30.53,NW,310,0.0,0.0,62,0.00,,,0.00,meteohub,2013-01-11 00:37:00,
2013-01-10 19:42:00,37.8,25.9,30.53,NW,310,0.0,0.0,62,0.00,,,0.00,meteohub,2013-01-11 00:42:00,
2013-01-10 19:47:00,37.6,25.7,30.53,NW,310,0.0,0.0,62,0.00,,,0.00,meteohub,2013-01-11 00:47:00,
2013-01-10 19:52:00,37.6,26.6,30.54,NW,310,0.0,0.0,64,0.00,,,0.00,meteohub,2013-01-11 00:52:00,
2013-01-10 19:57:00,37.4,26.4,30.54,NW,310,0.0,0.0,64,0.00,,,0.00,meteohub,2013-01-11 00:57:00,
2013-01-10 20:02:00,37.0,26.8,30.54,NW,310,0.0,0.0,66,0.00,,,0.00,meteohub,2013-01-11 01:02:00,
2013-01-10 20:07:00,36.9,26.2,30.54,NW,310,0.0,0.0,65,0.00,,,0.00,meteohub,2013-01-11 01:07:00,
2013-01-10 20:12:00,36.9,26.6,30.54,NW,310,0.0,0.0,66,0.00,,,0.00,meteohub,2013-01-11 01:12:00,
2013-01-10 20:17:00,36.7,26.4,30.54,NW,310,0.0,0.0,66,0.00,,,0.00,meteohub,2013-01-11 01:17:00,
2013-01-10 20:22:00,36.7,26.8,30.54,NW,310,0.0,0.0,67,0.00,,,0.00,meteohub,2013-01-11 01:22:00,
2013-01-10 20:27:00,36.3,26.8,30.54,NW,310,0.0,0.0,68,0.00,,,0.00,meteohub,2013-01-11 01:27:00,
2013-01-10 20:32:00,36.1,27.0,30.54,NW,310,0.0,0.0,69,0.00,,,0.00,meteohub,2013-01-11 01:32:00,
2013-01-10 20:37:00,36.1,27.0,30.54,NW,310,0.0,0.0,69,0.00,,,0.00,meteohub,2013-01-11 01:37:00,
2013-01-10 20:42:00,36.0,26.4,30.54,NW,310,0.0,0.0,68,0.00,,,0.00,meteohub,2013-01-11 01:42:00,
2013-01-10 20:47:00,36.0,26.4,30.54,NW,310,0.0,0.0,68,0.00,,,0.00,meteohub,2013-01-11 01:47:00,
2013-01-10 20:57:00,35.8,26.6,30.55,NW,310,0.0,0.0,69,0.00,,,0.00,meteohub,2013-01-11 01:57:00,
2013-01-10 21:02:00,35.2,26.1,30.55,NW,310,0.0,0.0,69,0.00,,,0.00,meteohub,2013-01-11 02:02:00,
2013-01-10 21:07:00,35.2,26.1,30.55,NW,310,0.0,0.0,69,0.00,,,0.00,meteohub,2013-01-11 02:07:00,
2013-01-10 21:12:00,35.1,26.2,30.55,NW,310,0.0,0.0,70,0.00,,,0.00,meteohub,2013-01-11 02:12:00,
2013-01-10 21:17:00,34.9,26.4,30.55,NW,310,0.0,0.0,71,0.00,,,0.00,meteohub,2013-01-11 02:17:00,
2013-01-10 21:22:00,34.3,25.9,30.55,NW,310,0.0,0.0,71,0.00,,,0.00,meteohub,2013-01-11 02:22:00,
2013-01-10 21:27:00,34.2,26.1,30.55,NW,310,0.0,0.0,72,0.00,,,0.00,meteohub,2013-01-11 02:27:00,
2013-01-10 21:32:00,33.6,25.5,30.55,NW,310,0.0,0.0,72,0.00,,,0.00,meteohub,2013-01-11 02:32:00,
2013-01-10 21:37:00,33.4,25.7,30.55,NW,310,0.0,0.0,73,0.00,,,0.00,meteohub,2013-01-11 02:37:00,
2013-01-10 21:42:00,33.3,25.5,30.55,NW,310,0.0,0.0,73,0.00,,,0.00,meteohub,2013-01-11 02:42:00,
2013-01-10 21:52:00,32.9,25.5,30.55,NW,310,0.0,0.0,74,0.00,,,0.00,meteohub,2013-01-11 02:52:00,
2013-01-10 21:57:00,33.1,25.7,30.56,NW,310,0.0,0.0,74,0.00,,,0.00,meteohub,2013-01-11 02:57:00,
2013-01-10 22:02:00,32.9,25.5,30.55,NW,310,0.0,0.0,74,0.00,,,0.00,meteohub,2013-01-11 03:02:00,
2013-01-10 22:07:00,32.7,25.3,30.55,NW,310,0.0,0.0,74,0.00,,,0.00,meteohub,2013-01-11 03:07:00,
2013-01-10 22:12:00,32.7,25.3,30.55,NW,310,0.0,0.0,74,0.00,,,0.00,meteohub,2013-01-11 03:12:00,
2013-01-10 22:17:00,32.5,25.9,30.55,NW,310,0.0,0.0,76,0.00,,,0.00,meteohub,2013-01-11 03:17:00,
2013-01-10 22:22:00,32.4,25.9,30.55,NW,310,0.0,0.0,77,0.00,,,0.00,meteohub,2013-01-11 03:22:00,
2013-01-10 22:27:00,31.6,25.5,30.55,NW,310,0.0,0.0,78,0.00,,,0.00,meteohub,2013-01-11 03:27:00,
2013-01-10 22:32:00,31.3,25.5,30.55,NW,310,0.0,0.0,79,0.00,,,0.00,meteohub,2013-01-11 03:32:00,
2013-01-10 22:37:00,30.7,25.0,30.54,NW,310,0.0,0.0,79,0.00,,,0.00,meteohub,2013-01-11 03:37:00,
2013-01-10 22:42:00,30.9,25.2,30.53,NW,310,0.0,0.0,79,0.00,,,0.00,meteohub,2013-01-11 03:42:00,
2013-01-10 22:47:00,30.9,25.5,30.54,NW,310,0.0,0.0,80,0.00,,,0.00,meteohub,2013-01-11 03:47:00,
2013-01-10 22:52:00,30.7,25.5,30.53,NW,310,0.0,0.0,81,0.00,,,0.00,meteohub,2013-01-11 03:52:00,
2013-01-10 22:57:00,30.4,25.3,30.53,NW,310,0.0,0.0,81,0.00,,,0.00,meteohub,2013-01-11 03:57:00,
2013-01-10 23:02:00,30.2,25.3,30.54,NW,310,0.0,0.0,82,0.00,,,0.00,meteohub,2013-01-11 04:02:00,
2013-01-10 23:07:00,29.8,25.3,30.53,NW,310,0.0,0.0,83,0.00,,,0.00,meteohub,2013-01-11 04:07:00,
2013-01-10 23:12:00,29.7,25.2,30.53,NW,310,0.0,0.0,83,0.00,,,0.00,meteohub,2013-01-11 04:12:00,
2013-01-10 23:17:00,29.7,25.2,30.53,NW,310,0.0,0.0,83,0.00,,,0.00,meteohub,2013-01-11 04:17:00,
2013-01-10 23:22:00,29.7,24.8,30.54,NW,310,0.0,0.0,82,0.00,,,0.00,meteohub,2013-01-11 04:22:00,
2013-01-10 23:27:00,29.7,24.8,30.54,NW,310,0.0,0.0,82,0.00,,,0.00,meteohub,2013-01-11 04:27:00,
2013-01-10 23:32:00,29.7,24.8,30.53,NW,310,0.0,0.0,82,0.00,,,0.00,meteohub,2013-01-11 04:32:00,
2013-01-10 23:37:00,30.0,25.5,30.54,NW,310,0.0,0.0,83,0.00,,,0.00,meteohub,2013-01-11 04:37:00,
2013-01-10 23:42:00,29.8,25.3,30.54,NW,310,0.0,0.0,83,0.00,,,0.00,meteohub,2013-01-11 04:42:00,
2013-01-10 23:47:00,29.7,24.8,30.54,NW,310,0.0,0.0,82,0.00,,,0.00,meteohub,2013-01-11 04:47:00,
2013-01-10 23:52:00,29.7,24.8,30.54,NW,310,0.0,0.0,82,0.00,,,0.00,meteohub,2013-01-11 04:52:00,
2013-01-10 23:57:00,29.7,25.2,30.54,NW,310,0.0,0.0,83,0.00,,,0.00,meteohub,2013-01-11 04:57:00,